Location: Le Rocchette
(44.3500°N, 7.8333°E)
Time: 07:25:20
(UTC+00:00)

Cosmos 2322 Rocket - Pass Details

Date: 17 November 2019
Orbit: 833 x 851 km, 71.0° (Epoch: 06 December)

Event Time Altitude Azimuth Distance (km) Brightness Sun altitude
Exits shadow 05:00:57 - 331° (NNW) 2,544 4.3 -15.3°
Reaches altitude 10° 05:01:09 10° 331° (NNW) 2,469 4.2 -15.3°
Maximum altitude 05:06:46 70° 248° (WSW) 897 2.2 -14.3°
Drops below altitude 10° 05:12:24 10° 166° (SSE) 2,464 5.0 -13.3°
Sets 05:14:51 0° 164° (SSE) 3,397 5.8 -12.9°
